timestamp,gas_concentrations,,corrected_fluxes_and_quality_flags,,,,,,,,,,storage_terms,,,turbulence,,,footprint,,
ISOdate,CO2_1_1_1,H2O_1_1_1,Tau_1_1_1,QcTau_1_1_1,H_1_1_1,QcH_1_1_1,LE_1_1_1, QcLE_1_1_1,Fc_1_1_1, QcFc_1_1_1,E_1_1_1, QcE_1_1_1,Sa_1_1_1,Sw_1_1_1,Sc_1_1_1,ustar_1_1_1,MO_length_1_1_1,ZL_1_1_1,Fetchmax_1_1_1,Fetch70_1_1_1,Fetch90_1_1_1
yyyymmddHHMM,[µmol+1mol_a-1],[mmol+1mol_a-1],[kg+1m-1s-2],[#],[W+1m-2],[#],[W+1m-2],[#],[µmol+1s-1m-2],[#],[mmol+1s-1m-2],[#],[W+1m-2],[W+1m-2],[µmol+1s-1m-2],[m+1s-1],[m],[#],[m],[m],[m]
201212270030,470.79197024136420,2.8497999567203625,2.68650536904524173E-002,0,-1.1783222547293477,1,-9999.,-9999.,2.0948098985649706,1,-9999.,-9999.,-9999.,-9999.,-9999.,0.14543733890833715,221.38543007823236,9.75673963384450088E-002,129.89168817756894,994.00000000000000,4249.0000000000000
201212270100,489.28165007476002,2.8325376441710830,3.28104764742133057E-002,0,-1.3596392656314933,0,-9999.,-9999.,-0.81879848325690274,2,-9999.,-9999.,-1.7158483424061879,191.34570095615467,15.784804587079844,0.16071189913384432,258.86823092838495,8.34401344751166951E-002,111.42875328298442,823.00000000000000,3421.0000000000000
201212270130,519.33791945619362,2.8164963494091322,3.05811536912086110E-002,0,-1.3075798309258901,1,-9999.,-9999.,19.966203591641005,2,-9999.,-9999.,-1.4920812397787060,177.85607591907700,25.664331800534200,0.15514037776589143,242.13277551156227,8.92072539719785396E-002,122.46361747157188,919.00000000000000,3872.0000000000000
201212270200,534.47749713128940,2.8069560296135672,3.74039261932359521E-002,0,0.56965375896712178,1,-9999.,-9999.,-3.5060691103949582,1,-9999.,-9999.,-0.70488319149209722,105.82366557857674,12.932654235496127,0.17154031919823770,-751.49949512003820,-2.87425342801458546E-002,124.03407802070163,588.00000000000000,1764.0000000000000
201212270230,545.53471986020031,2.7933660443546544,7.80110821052987791E-002,0,0.78578317935306818,0,-9999.,-9999.,1.1361513481366030,2,-9999.,-9999.,-1.1283357459380126,150.82024965114778,9.4497923806707700,0.24767575793715513,-1640.1321759659586,-1.31696702964068397E-002,104.50499660823350,191.06846395902375,286.25537624331491
201212270300,539.77860687309862,2.7567885102625751,5.84497784847411161E-002,0,-3.5063581428413277,0,-9999.,-9999.,0.13237657268925626,2,-9999.,-9999.,-2.7066608125180744,406.27408809342927,-4.9229475746016993,0.21430580346708206,238.16293422774010,9.06942134805296535E-002,94.892698817119808,173.49411791172565,259.92580339931897
201212270330,525.85034450567707,2.7493537014861209,2.10987681986442438E-002,0,-2.4704087040454756,0,-9999.,-9999.,7.5756151865411825,1,-9999.,-9999.,-0.46495222380495288,82.582259861094442,-11.912351055651582,0.12875618927753429,73.306918935183575,0.29465158696818594,94.585052137065603,819.00000000000000,3849.0000000000000
201212270400,552.86121290463507,2.7416040301950551,6.72896947904472794E-003,0,-1.0771618216655161,0,-9999.,-9999.,3.5771838692284157,1,-9999.,-9999.,-0.95476740685131323,86.078757898109913,23.100384103833505,7.27148565390750429E-002,30.278751961533420,0.71337154277167580,249.09516418229398,2409.0000000000000,-9999.
201212270430,555.24525234434213,2.7263281615344348,1.69126910006726881E-002,0,-2.6758109305886628,0,-9999.,-9999.,-11.740606127798891,1,-9999.,-9999.,-1.6604437997519219,169.68425530623455,2.0388713032763146,0.11528056923806869,48.560103415345338,0.44480959637277562,121.08479501503174,1089.0000000000000,5278.0000000000000
201212270500,507.47850674229255,2.7271919372217410,1.55969369301100728E-002,0,-1.9148634218579961,0,-9999.,-9999.,8.86497997195985210E-002,2,-9999.,-9999.,0.72222580330867736,-9.5936568136491562,-40.847119296015308,0.11071074741483881,60.104021708575260,0.35937694992743308,171.07539779522529,1603.0000000000000,8017.0000000000000
201212270530,479.30930502606117,2.7257518532671128,5.13868726182481750E-002,0,-6.3015709841307093,0,-9999.,-9999.,3.6201518465868463,1,-9999.,-9999.,0.25733677836797764,15.993859611667101,-24.087781387003286,0.20095687089068814,109.22804908393957,0.19775140342752834,115.82465213038907,211.76440447248572,317.26166642661201
201212270600,475.10985389143923,2.7283395182759085,7.22841638526593036E-004,2,-2.0122445552723804,2,-9999.,-9999.,-1.90768611935758919E-002,2,-9999.,-9999.,0.50653326108920360,-28.747689307429500,-3.5921338435218284,2.38303104990371349E-002,0.57056519574349973,37.857198723544968,1790.0008706286480,-9999.,-9999.
201212270630,464.18965065528215,2.7274843516379068,1.27897280788674336E-002,1,-4.0865181005313662,0,-9999.,-9999.,4.2666155563266654,1,-9999.,-9999.,2.49101489845610334E-002,9.4999697786420008,-9.3404476736058690,0.10024211221357696,20.911193866958158,1.0329395890748365,162.85827712416821,1418.0000000000000,6695.0000000000000
201212270700,445.94328352544039,2.7334951693084153,1.72012861284455247E-002,1,-3.7383277590703243,0,-9999.,-9999.,1.1702771316357878,1,-9999.,-9999.,1.2202862038149282,-66.753455152532268,-15.602783860631442,0.11626691557220115,35.665759254139353,0.60562288457361568,240.13943511964354,2341.0000000000000,-9999.
201212270730,429.98840268477898,2.7440843692246499,3.48318231139007131E-002,0,-6.8921051007782523,0,0.57930160460029967,2,4.0871177233230469,1,1.27436421615856367E-002,2,0.90447849759118415,0.41145895921273423,-13.637845851220462,0.16548224358416996,55.767661725891500,0.38732124194426593,186.08103962292617,1766.0000000000000,8926.0000000000000
201212270800,412.49045596075780,2.7610142892436316,1.49703797816830523E-002,1,-6.3916615503130174,1,2.2374219640164492,2,-2.7462560566870029,1,4.92263383275740735E-002,2,3.7070531368481761,0.65736311948358261,-14.948139891990161,0.10851934709283309,16.958393904720054,1.2737055243178448,363.09277080935220,3421.0000000000000,-9999.
201212270830,394.30408387360563,2.7689222910058953,5.67226402904637619E-002,0,-3.7053747932513121,0,5.5549244194218010,1,-0.78765922837746771,2,0.12222166437969370,1,1.2437694993868949,0.30698942554297604,-15.533623346949286,0.21125466838387658,215.80965961544996,0.10008819826920130,91.449876261800313,167.19954024866536,250.49537903782669
201212270900,388.89264268168068,2.7735377657212186,0.14248510683113944,0,-3.7002628555744037,1,-5.6906265080019969,2,8.4813084473450910,1,-0.12521884928854757,2,2.4129502578480273,0.17915936729629781,-4.6221678558432240,0.33481906216329077,860.59933360715183,2.50987877360593151E-002,127.12827205148164,232.43102679291189,348.22403261426712
201212270930,384.31305110994475,2.7378559524696056,0.12071089053156259,0,5.5579515239482635,0,2.2611177649996912,2,-0.19808364439762410,0,4.97587590933900800E-002,2,2.2378843420122263,-1.3843756460952044,-3.9100304643588228,0.30823746303906535,-447.01291825503318,-4.83207511861583547E-002,100.26618377962190,183.31856220830866,274.64461120374546
201212271000,384.22826948410579,2.6758303016269047,0.16918872079458380,0,11.384196534724699,0,11.276745400426266,0,-0.36868262233646765,0,0.24819350409018809,0,3.6696028139056494,-2.4047131273049058,-7.23436339113744109E-002,0.36502298059162347,-362.43030898847155,-5.95976646111213357E-002,104.50930752033014,191.07634568123129,286.26718449941967
201212271030,383.74795277309198,2.6077041614297856,0.35624483147447683,0,19.988580987517061,0,11.970242732667984,0,7.75399631949705848E-002,0,0.26348588613599200,0,2.9060438499931860,-2.6396231040882965,-0.40964742893776274,0.52979909441776085,-631.09791114126187,-3.42260679661244571E-002,106.85626797407063,195.36733791531401,292.69587278723634
201212271100,383.43435135392554,2.4887039253513508,0.15311355402261614,1,17.448732210243701,0,6.7282301906022495,0,-0.52797931226623362,0,0.14808781159237208,0,-2.1858462980500324,-4.6114871282022447,-0.26747898776462903,0.34731169396830047,-203.63314653143803,-0.10607310434436210,80.976947363768545,148.05168605370770,221.80840425791101
201212271130,383.72063505457464,2.4923084063072798,0.39046581579908696,0,56.876376908565035,0,7.0427851485871331,0,-1.6170584156429086,0,0.15505749032919527,0,7.8869788680352366,0.13942840716950777,0.24381109440570523,0.55504960538411308,-254.93207015269627,-8.47284532976266269E-002,109.12717645185475,199.51928288181480,298.91624293048562
201212271200,383.64498500222459,2.4711150347470050,0.14680700531189148,0,29.612034533820495,0,4.8017269034674666,0,-0.70732150311155295,0,0.10573369818475647,0,4.1054299712723132,-0.81899586996213913,-6.43734609272281072E-002,0.34047995170468925,-113.00670602825519,-0.19113909925486483,96.199192810177621,175.88280561592276,263.50449285609591
201212271230,383.49827860009975,2.4580616882266666,0.12974076027391179,0,26.056604457832687,0,5.4559812129687950,0,-0.25322990519720978,0,0.12015543713743204,0,3.3093568031898823,-0.50390222890695979,-0.12472227966037391,0.32022602717060322,-106.81163385446555,-0.20222516237726246,91.462047122230786,167.22179246322912,250.52871691012760
201212271300,383.82722296126792,2.5021208999919069,0.31820394703390431,0,85.084146495086173,0,7.1792055511162625,0,-1.2219739912574550,0,0.15816315801284742,0,9.5798362969285424,1.6969826616684240,0.27912071425995205,0.50198123928405747,-125.96476818282883,-0.17147651928076546,109.75806191974462,200.67274272771741,300.64433596755123
201212271330,383.71028168743021,2.4920908235573500,0.15836563566548867,0,38.424535793087067,0,5.8210720194740944,0,-0.57880559398397891,0,0.12824163668180036,0,-0.17292505426432681,-0.38619687193422952,-9.91969705402218072E-002,0.35418802321065407,-97.953531074886811,-0.22051272438036468,97.890665274223537,178.97535674767195,268.13769798805538
201212271400,383.69462470392057,2.4986846376518166,0.25300233804670053,0,60.850539310134707,0,9.3348080783512639,0,-2.10022443781756607E-002,0,0.20568801184400959,0,4.6818236428519233,0.25364520861875567,-1.32709387728367472E-002,0.44785221377406448,-125.04003471442564,-0.17274467373054919,114.82205500752247,209.93133716993373,314.51539757879277
201212271430,383.67118108085754,2.5032869646354223,0.13265526267336325,0,25.032734768231776,0,6.0611856993370727,1,-0.47949946084744433,0,0.13356277273211842,1,1.4645439412136572,0.17701996711199847,-1.98699763960081995E-002,0.32429895055640057,-115.42306291336804,-0.18713764350727810,107.73294850239827,196.97018952401066,295.09723657486830
201212271500,383.72215326831281,2.5166115131049214,0.17992556207867300,0,23.478514474283042,0,4.7556907432900504,1,-0.47791587620222109,0,0.10480040659632171,1,1.3000127119878548,0.51248687429971729,4.32028980056805290E-002,0.37768291292259776,-194.42104919876351,-0.11109908155015437,112.21637101891240,205.16731579847021,307.37802544598520
201212271530,383.58531703235229,2.4996767321983309,9.02943373101774693E-002,0,8.7180886919159484,0,2.9506727398952903,0,4.26977835364470981E-002,0,6.50161261596431117E-002,0,-2.9804155981857230,-0.65183627529158039,-0.11605399837220305,0.26746692115064769,-185.98491730703796,-0.11613844989559605,95.756679192470372,175.07374959027419,262.29237950036384
201212271600,383.47326569398570,2.5027992985808516,9.55411341690697719E-002,0,0.37805276456078413,2,2.8109598247883247,1,0.21687391171081913,1,6.19322631021955450E-002,1,-2.2811895385265539,0.12023249307500131,-9.50581882053212063E-002,0.27509235801456838,-4666.0019604328754,-4.62923080255116769E-003,107.43916760575010,196.43306434832652,294.29252518467155
201212271630,383.48213210311201,2.5206627907838812,8.92509221209239201E-002,0,-3.5625868598653265,0,1.0679180110203619,0,0.13218863342958295,0,2.35276728939233411E-002,0,-1.2850058266056879,0.68801144982339701,7.52346890983437901E-003,0.26585339716945511,446.92336195317125,4.83304338927425664E-002,110.21090378047900,201.50068207564374,301.88473998104729
201212271700,383.52322817074304,2.5398569966146813,4.23266977817035109E-002,0,-4.3002454326586994,0,1.6294237420042712,0,0.18650063550815901,0,3.58958227093154128E-002,0,-1.8867293643703789,0.73947458657382470,3.48789373170203879E-002,0.18306205051373850,120.87917618486171,0.17869082733461808,109.22184911704161,912.00000000000000,4168.0000000000000
201212271730,383.58806629484030,2.5382436996307862,3.06184504328336250E-002,0,-3.1067860073104527,0,1.5216909231817140,0,0.17731761726977480,0,3.35191721993971098E-002,0,-2.6042989338338129,-6.21785525723926105E-002,5.50457206780098490E-002,0.15567451754879924,102.88693174119277,0.20993919863733310,100.68959970186302,852.00000000000000,3933.0000000000000
201212271800,383.57297401089477,2.5484452082677347,3.24399353089478912E-002,0,-3.0092539538626246,0,0.33718949943248178,0,3.86693114110776004E-002,0,7.42664739947040010E-003,0,-2.9103290941068218,0.39337083672305495,-1.28177409117868797E-002,0.16020831489386944,115.76959636312881,0.18657748388660128,82.201643357384938,673.00000000000000,3028.0000000000000
201212271830,383.34799997221029,2.5357675191604834,1.65145814117987205E-002,1,-1.3057358712261313,1,0.44063011496984222,1,0.13561578867803104,1,9.70262676269820733E-003,1,-6.2798996828898614,-0.48942252771489758,-0.19124558261721403,0.11425535463698167,96.774530603410014,0.22319922261900271,107.12831025051723,918.00000000000000,4282.0000000000000
201212271900,383.38247177349569,2.5296616103901410,1.96849145086116757E-003,1,-0.41111904174737818,0,-1.33469324928703909E-002,2,4.22012783956220716E-002,0,-2.93871273556032826E-004,2,-2.3945686202521039,-0.23588247039712540,2.93214204279222054E-002,3.94346537861665625E-002,12.639394327703506,1.7089426470900031,571.91169500724470,5447.0000000000000,-9999.
201212271930,383.44944333409552,2.5284476579079969,1.07149813629255179E-002,1,-1.6068553160289361,2,7.02217901263266220E-002,2,2.84442775637175488E-002,2,1.54602603906023989E-003,2,-1.8666656908865080,-4.69144888527089562E-002,5.69823857512299844E-002,9.19903529591374197E-002,41.050023974497961,0.52618726881667233,139.65277930576553,1273.0000000000000,6235.0000000000000
201212272000,383.54031761947476,2.5396442670928931,1.95715067468334126E-003,2,0.31780412989185575,2,9.83353218449843636E-002,2,5.15582566778893456E-004,2,2.16446858658670381E-003,2,-6.2648473972085794,0.43309018292214752,7.73703519180075072E-002,3.93022984489813862E-002,-16.183164976520789,-1.3347203733842041,331.42438498195094,966.00000000000000,2077.0000000000000
201212272030,383.61820140813154,2.5285621259020976,6.86422441802858174E-003,1,-0.97081843119804256,1,-0.11606073214054270,1,4.25894200287851785E-002,1,-2.55418177330074417E-003,1,-4.5726955336954962,-0.42894147469206334,6.63419032747965265E-002,7.35863052383044502E-002,34.765809152448099,0.62130007977907220,147.50029634096137,1341.0000000000000,6554.0000000000000
201212272100,383.89816982801085,2.5390834097222248,2.61542481953085625E-003,1,-0.10748679330034237,2,3.36028233923542294E-002,2,3.20920528857223039E-002,2,7.39456455582538806E-004,2,-1.8031658569329114,0.40738433746340458,0.23855112727505645,4.54158514671559252E-002,73.820282150989712,0.29260251208224908,225.93246556682502,2156.0000000000000,-9999.
201212272130,384.48549919143267,2.4987162015669173,6.39489242934066990E-003,1,-1.4770727662864158,1,0.36487093271280191,1,0.31039634605822070,1,8.02457234084651139E-003,1,-15.492677313966089,-1.5673336570966081,0.50153019965030987,7.09378742882638136E-002,20.468064245280530,1.0553025308673472,489.17861337840435,4986.0000000000000,-9999.
201212272200,384.87861801621222,2.4933285933301330,2.64416215185544340E-003,2,-2.5759830265687156,1,-0.19706923578300345,1,0.35604112338694149,1,-4.33282571980310970E-003,1,-7.9496198239090061,-0.20947110694038895,0.33605034729592981,4.55903138409854136E-002,3.1151099091910108,6.9339447498369289,872.00360386863576,6533.0000000000000,-9999.
201212272230,385.15294602361422,2.4984268395831619,4.79433643122604593E-003,0,-1.6027116774891317,0,-0.19717655721574892,0,0.32084545908347961,0,-4.33450970060795127E-003,0,-4.1349914640714216,0.19837239945958390,0.23464715156312232,6.13706745580942861E-002,12.212903530017917,1.7686211920784995,407.82604553890593,3668.0000000000000,-9999.
201212272300,385.12745803434882,2.4998636037513244,4.76398359043585847E-003,1,-2.2725283655147983,1,-0.20165823858352006,1,0.21162040405767302,1,-4.43266654923883500E-003,1,-2.1758482304657374,5.59195615754871853E-002,-2.18053437641888906E-002,6.11703235891501232E-002,8.5282545006721477,2.5327574356860030,645.69108185191817,5739.0000000000000,-9999.
201212272330,385.07754923970316,2.4945553201115263,1.11531671739804796E-002,0,-2.9413739959160834,0,-0.17557681666915959,0,0.15609883901555768,0,-3.85901482639189504E-003,0,-2.4340386889404120,-0.20668332498435957,-4.27107971022114979E-002,9.35810044890207776E-002,23.590610541510518,0.91561852381871178,310.62835088304888,3015.0000000000000,-9999.
201212280000,384.82068421639116,2.4987798438092259,3.01274512705603029E-002,0,-6.5448726116436431,0,-0.80365806285108510,0,0.66572926430748103,0,-1.76634840375860976E-002,0,-0.25752037620108681,0.16448377877227580,-0.21981400517862132,0.15380669630683810,47.068637365678747,0.45890429825253815,109.82263249304131,975.00000000000000,4678.0000000000000
